This demonstration page uses our WeatherBlox Daily Observations layout. Learn more.

Left ArrowRight Arrow

38.89511, -77.03637

Hourly Observations for August 3, 2021

Temp ( °F °C ) Dew Point ( °F °C ) Humidity (%) Winds ( mph kmh ) Pressure ( in mb ) Visibility ( mi km ) Precip ( " mm )
12:52 am 00:52 Mostly Cloudy 72 22.2 60 15.6 66 66 N N/A 30.10 1019 10 16 N/A
1:52 am 01:52 Mostly Cloudy 71 21.7 61 16.1 71 71 N N/A 30.10 1019 10 16 N/A
2:52 am 02:52 Mostly Cloudy 70 21.1 62 16.7 76 76 N N/A 30.10 1019 10 16 N/A
3:52 am 03:52 Mostly Cloudy 68 20 61 16.1 78 78 NNW 6 9 30.09 1019 10 16 N/A
4:52 am 04:52 Cloudy 68 20 61 16.1 78 78 N 6 9 30.10 1019 10 16 N/A
5:52 am 05:52 Cloudy 68 20 60 15.6 76 76 N 3 6 30.11 1020 10 16 N/A
6:52 am 06:52 Cloudy 68 20 62 16.7 81 81 N 5 7 30.11 1020 10 16 N/A
7:52 am 07:52 Cloudy 70 21.1 63 17.2 79 79 NE 5 7 30.11 1020 10 16 N/A
8:52 am 08:52 Cloudy 72 22.2 62 16.7 71 71 NE 6 9 30.11 1020 10 16 N/A
9:52 am 09:52 Cloudy 74 23.3 61 16.1 64 64 NE 7 11 30.13 1020 10 16 N/A
10:52 am 10:52 Cloudy 77 25 62 16.7 60 60 NE 7 11 30.11 1020 10 16 N/A
11:52 am 11:52 Cloudy 79 26.1 58 14.4 49 49 NNE 6 9 30.11 1020 10 16 N/A
12:52 pm 12:52 Cloudy 80 26.7 58 14.4 47 47 ENE 7 11 30.09 1019 10 16 N/A
1:52 pm 13:52 Cloudy 81 27.2 58 14.4 45 45 SE 7 11 30.09 1019 10 16 N/A
2:52 pm 14:52 Cloudy 81 27.2 58 14.4 45 45 ESE 10 17 30.08 1019 10 16 N/A
3:52 pm 15:52 Mostly Cloudy 81 27.2 57 13.9 44 44 ESE 10 17 30.06 1018 10 16 N/A
4:52 pm 16:52 Mostly Cloudy 79 26.1 59 15 50 50 ESE 10 17 30.06 1018 10 16 N/A
5:52 pm 17:52 Mostly Cloudy 78 25.6 57 13.9 48 48 ESE 9 15 30.07 1018 10 16 N/A
6:52 pm 18:52 Mostly Cloudy 76 24.4 59 15 56 56 ESE 10 17 30.08 1019 10 16 N/A
7:52 pm 19:52 Mostly Cloudy 76 24.4 58 14.4 54 54 ESE 9 15 30.08 1019 10 16 N/A
8:52 pm 20:52 Mostly Cloudy 74 23.3 59 15 60 60 SE 7 11 30.09 1019 10 16 N/A
9:52 pm 21:52 Mostly Cloudy 74 23.3 60 15.6 62 62 SE 5 7 30.10 1019 10 16 N/A
10:52 pm 22:52 Mostly Cloudy 73 22.8 61 16.1 66 66 ESE 5 7 30.09 1019 10 16 N/A
11:52 pm 23:52 Mostly Cloudy 73 22.8 61 16.1 66 66 ESE 3 6 30.09 1019 10 16 N/A

Powered by AerisWeather